Skip Page Navigation
NASA JPL Caltech
NASA Logo - Jet Propulsion Laboratory + View the NASA Portal
+ Center for Near-Earth Object Studies
JPL Home Earth Solar System Stars & Galaxies Technology
JPL Solar System Dynamics
BODIES ORBITS EPHEMERIDES TOOLS PHYSICAL DATA DISCOVERY FAQ SITE MAP
JPL Small-Body Database Browser
Search: [ help ]  
21147 (1993 FV80)
Classification: Main-belt Asteroid          SPK-ID: 2021147
Ephemeris | Orbit Diagram | Orbital Elements | Mission Design | Physical Parameters | Discovery Circumstances ]

[ show orbit diagram ]
Orbital Elements at Epoch 2459396.5 (2021-Jul-01.0) TDB
Reference: JPL 24 (heliocentric ecliptic J2000)
 Element Value Uncertainty (1-sigma)   Units 
e .1844101371114906 4.7033e-08  
a 2.679122792789595 1.3877e-08 au
q 2.185065391232746 1.3343e-07 au
i 2.578015699310725 4.1066e-06 deg
node 45.34507399854645 9.1297e-05 deg
peri 281.8765462653605 9.1997e-05 deg
M 27.83803744583044 1.1464e-05 deg
tp 2459272.642169234289
(2021-Feb-27.14216923)
5.0672e-05 TDB
period 1601.722792507213
4.39
1.2444e-05
3.407e-08
d
yr
n .2247579928837023 1.7462e-09 deg/d
Q 3.173180194346444 1.6436e-08 au
  Orbit Determination Parameters
   # obs. used (total)      1142  
   data-arc span      10017 days (27.43 yr)  
   first obs. used      1993-03-18  
   last obs. used      2020-08-20  
   planetary ephem.      DE441  
   SB-pert. ephem.      SB441-N16  
   condition code      0  
   norm. resid. RMS      .54021  
   source      ORB  
   producer      Otto Matic  
   solution date      2021-Apr-13 03:40:30  

Additional Information
 Earth MOID = 1.17466 au 
 Jupiter MOID = 2.1733 au 
 T_jup = 3.351 
[ show covariance matrix ]

Ephemeris | Orbit Diagram | Orbital Elements | Mission Design | Physical Parameters | Discovery Circumstances ]

Physical Parameter Table
Parameter Symbol Value Units Sigma Reference Notes
absolute magnitude H 14.72   n/a E2021B10  
diameter diameter 3.776 km 0.999 urn:nasa:pds:neowise_diameters_albedos::2.0[mainbelt] (http://adsabs.harvard.edu/abs/2011ApJ...741...68M)  
geometric albedo albedo 0.196   0.027 urn:nasa:pds:neowise_diameters_albedos::2.0[mainbelt] (http://adsabs.harvard.edu/abs/2011ApJ...741...68M)  

21147 (1993 FV80)          Discovered 1993-Mar-18 by UESAC at La Silla
Reference: 20010208/Numbers.arcLast Updated: 2004-04-19

Alternate Designations
 1993 FV80 = 1998 HT148 = 1998 LK4 
Ephemeris | Orbit Diagram | Orbital Elements | Mission Design | Physical Parameters | Discovery Circumstances ]
ABOUT SSD CREDITS/AWARDS PRIVACY/COPYRIGHT GLOSSARY LINKS
FirstGov 2021-Aug-01 04:16 UT
(server date/time)  
NASA Home Page
Site Manager:   Ryan S. Park
Webmaster  Alan B. Chamberlin